Flag for China Weather past 2 weeks in Foochow, Fujian, China

Now
68 °F

Partly sunny.


Feels Like: 68 °F
Forecast: 48 / 72 °F
Wind: 15 mph from Northeast

Location: Fuzhou Airport

Current Time: Apr 22, 2015 at 11:56:21 AM

Latest Report: Apr 22, 2015 at 11:00 AM


Visibility: N/A

Pressure: 30.15 "Hg

Humidity: 56%

Dew point: 52 °F

Location of FoochowLocation

Historic Weather in Foochow — Graph

°F

Foochow temperature yesterday

Maximum temperature yesterday: 63 °F (at 12:00 PM)
Minimum temperature yesterday: 57 °F (at 2:00 AM)
Average temperature yesterday: 60 °F

Past Weeks' High & Low Weather Summary

 TemperatureHumidityPressure
High81 °F (Apr 16, 10:00 AM)100% (Apr 9, 9:00 PM)30.27 "Hg (Apr 9, 9:00 PM)
Low50 °F (Apr 8, 6:00 AM)28% (Apr 14, 10:00 AM)29.65 "Hg (Apr 19, 3:00 PM)
Average62 °F77%30.03 "Hg
* Reported Apr 7 10:00 AM — Apr 22 10:00 AM, Foochow, Weather by CustomWeather, © 2015

Note: Actual official high and low records may vary slightly from our data, if they occured in-between our weather recording intervals... More about our weather records

Advertising

Foochow weather history for previous 24 hours

 ConditionsComfort  
Time TempWeatherWind HumidityBarometerVisibility
10:00 AM
Wed, Apr 22
68 °FSunny.15 mph56%30.18 "Hg10 mi
9:00 AM68 °FSunny.13 mph56%30.15 "Hg10 mi
8:00 AM64 °FSunny.10 mph56%30.12 "Hg10 mi
7:00 AM63 °FPassing clouds.6 mph59%30.12 "HgN/A
6:00 AM59 °FPassing clouds.3 mph68%30.12 "HgN/A
5:00 AM59 °FPassing clouds.3 mph68%30.09 "HgN/A
4:00 AM61 °FClear.3 mph68%30.07 "Hg10 mi
3:00 AM61 °FClear.3 mph63%30.07 "Hg10 mi
2:00 AM61 °FOvercast.3 mph63%30.07 "HgN/A
1:00 AM61 °FOvercast.3 mph68%30.09 "HgN/A
12:00 AM61 °FOvercast.6 mph63%30.09 "HgN/A
11:00 PM
Tue, Apr 21
61 °FOvercast.6 mph68%30.09 "Hg6 mi
10:00 PM61 °FOvercast.3 mph68%30.12 "Hg6 mi
9:00 PM61 °FOvercast.3 mph68%30.09 "Hg6 mi
8:00 PM61 °FOvercast.3 mph68%30.09 "Hg5 mi
7:00 PM61 °FOvercast.8 mph68%30.07 "HgN/A
6:00 PM61 °FOvercast.10 mph68%30.04 "HgN/A
5:00 PM61 °FOvercast.10 mph68%30.01 "HgN/A
4:00 PM63 °FOvercast.10 mph64%30.01 "HgN/A
3:00 PM61 °FOvercast.13 mph68%30.01 "HgN/A
2:00 PM63 °FOvercast.13 mph64%30.04 "HgN/A
1:00 PM63 °FOvercast.13 mph68%30.04 "HgN/A
12:00 PM63 °FOvercast.13 mph68%30.07 "HgN/A
11:00 AM61 °FOvercast.15 mph72%30.07 "HgN/A
Weather by CustomWeather, © 2015

See weather overviewHow to use our weather pages